Simultaneous Nadir Overpasses (SNOs) Predictions

Prediction of SNOs between GOES-15 and FY3D Satellite Orbit:

Table of predicted SNOs for the next 14.0 days since TLE Epoch: 10/9/2021
Index Date Time (GOES-15) GOES-15 Lat,Lon FY3D Lat,Lon Distance(km) Time Diff (sec)
1 10/09/2021 09:58:58 0.30,-127.99 -0.57,-124.17 436.31 80
2 10/10/2021 22:17:54 -0.27,-128.02 -0.56,-129.38 155.28 80
3 10/11/2021 22:01:36 -0.28,-128.04 0.45,-124.79 371.35 80
4 10/13/2021 10:20:23 0.25,-128.10 0.65,-129.97 212.16 80
5 10/14/2021 10:04:04 0.26,-128.13 -0.37,-125.37 314.26 80
6 10/15/2021 22:23:01 -0.23,-128.15 -0.76,-130.59 278.12 80
7 10/16/2021 22:06:42 -0.24,-128.17 0.25,-126.00 248.40 80
8 10/18/2021 10:25:29 0.21,-128.23 0.90,-131.16 335.04 80
9 10/19/2021 10:09:11 0.23,-128.26 -0.18,-126.58 191.50 80
10 10/20/2021 22:28:06 -0.20,-128.27 -1.01,-131.79 401.05 80
11 10/21/2021 22:11:48 -0.21,-128.30 0.01,-127.19 125.24 80
